Время (UTC), дата Ветер
(°,м/с) 
Видим.   Явления Облачность Т
(°С)
Тd
(°С)
f(%) Тe
(°С)
Pmin
(гПа)
dP
(гПа)
Po
(мм)
O2
(г/м3)
Тmin Tmax R s Состояние
почвы
00 01.04.13 120 (ЮВ) >10 км    3/0 верхняя 
[Ci fib]
+5.2 +2.2 81 +5  1019.3  -1.3  724  286           
03 01.04.13 140 (ЮВ) >10 км    3/0 верхняя 
[Ci fib]
+6.5 +2.2 74 +4  1018.3  -0.7  723  284  +5.2        влажная 
06 01.04.13 120 (ЮВ) >10 км    ясно 
+11.1 +1.7 52 +10  1017.3  0.1  723  280           
09 01.04.13 110 (В) 10-13{13}  >10 км    ясно 
+19.2 -0.4 27 +19  1014.6  -1.2  722  272           
12 01.04.13 100 (В) 8-10{15}  >10 км    ясно 
+18.1 +2.3 35 +18  1014  -0.7  722  272           
15 01.04.13 100 (В) 8-10{12}  >10 км    ясно 
+12.9 +6.4 65 +11  1014  -0.9  721  276    +20       
18 01.04.13 110 (В) 5{10}  >10 км    ясно 
+8.1 +5.6 84 +7  1014.3  -0.6  720  281           
21 01.04.13 120 (ЮВ) >10 км    ясно 
+6.3 +5 91 +4  1013.3  -1.2  719  282           
00 02.04.13 120 (ЮВ) 10 км    4/4 100 м 
[St]
+4.1 +3.5 96 +2  1013  -0.8  719  285           
03 02.04.13 110 (В) 0100 м  туман  ?/?  
+2.9 +2.6 98 +1  1012.3  -0.8  718  286  +2.9        влажная 
06 02.04.13 110 (В) 4000 м  дымка{туман}  5/5 150 м 
[St]
+7.6 +7.2 97 +7  1011  -0.3  718  280           
09 02.04.13 090 (В) >10 км    3/0 верхняя 
[Ci fib]
+16.2 +7.5 56 +16  1009  -0.3  718  272           
12 02.04.13 090 (В) >10 км    6/0 средняя, верхняя 
[Ac As|Ci]
+18.4 +8.6 53 +19  1008.4  0.1  718  269           
15 02.04.13 120 (ЮВ) >10 км    10/0 средняя, верхняя 
[Ac und|Ci fib]
+13.2 +8.1 71 +14  1010.6  1.1  719  275    +18.8       
18 02.04.13 290 (З) >10 км    8/0 средняя 
[Ac As]
+14 +7.5 65 +14  1011.4  0.9  719  274           
21 02.04.13 290 (З) >10 км    8/0 
+12.6 +7.4 71 +12    -0.1             
00 03.04.13 280 (З) >10 км    10/0 средняя 
[Ac und]
+11.5 +8 79 +11  1012.6  0.6  720  277           
03 03.04.13 290 (З) >10 км    10/3 1000 м средняя 
[Sc|Ac und]
+10 +8.4 90 +10  1013.4  0.6  720  278  +10        сухая 
06 03.04.13 320 (СЗ) >10 км    8/8 600 м 
[Sc]
+14.1 +9 71 +15  1013.7  721  275  +9.6         
09 03.04.13 110 (В) >10 км    8/3 600 м средняя 
[Sc|Ac trans]
+16.1 +7.8 58 +17  1013  -0.4  721  273           
12 03.04.13 100 (В) >10 км    8/5 600 м кучево-дожд., средняя 
[Cb calv|Ac trans]
+17.3 +7.1 51 +18  1012.1  -0.6  720  272           
15 03.04.13 080 (В) >10 км    6/3 600 м средняя 
[Sc|Ac trans]
+15.6 +8.6 63 +16  1011.7  -0.7  720  273    +18.6       
18 03.04.13 100 (В) >10 км    3/0 
+10.9 +8 82 +10    10.2             
21 03.04.13 140 (ЮВ) >10 км    ясно 
+9.3 +7 86 +9  1013.4  -0.7  720  279           
00 04.04.13 140 (ЮВ) >10 км    ясно 
+8.7 +6.7 87 +8  1012.6  -0.9  719  280           
03 04.04.13 170 (Ю) >10 км    3/0 верхняя 
[Ci]
+7.5 +6 90 +7  1012  -0.8  719  281  +6.7        сухая 
06 04.04.13 120 (ЮВ) >10 км    9/0 верхняя 
[Ci fib]
+14.3 +8.2 67 +14  1010.5  -0.2  719  274           
09 04.04.13 110 (В) 10-12{12}  >10 км    10/0 верхняя 
[Ci fib]
+19.6 +4.8 38 +19  1009  -0.5  718  269           
12 04.04.13 090 (В) 8-10{12}  >10 км    10/0 верхняя 
[Ci fib]
+19.9 +4.8 37 +20  1008.6  -0.3  718  269           
15 04.04.13 090 (В) 6{11}  >10 км    10/0 верхняя 
[Ci fib]
+16.6 +6.2 50 +16  1009.4  0.2  718  272    +20.7       
18 04.04.13 100 (В) >10 км    8/0 верхняя 
[Ci fib]
+11.6 +7.1 74 +11  1011.2  0.8  719  277           
21 04.04.13 090 (В) >10 км    4/0 верхняя 
[Ci fib]
+9.9 +7.1 83 +9  1010.7  -0.8  718  278           
00 05.04.13 120 (ЮВ) >10 км    4/0 2000 м верхняя 
[Ci fib]
+8.5 +6.8 89 +9  1010.5  -0.5  718  279           
03 05.04.13 090 (В) >10 км    5/0 верхняя 
[Ci fib]
+7.7 +6.5 92 +6  1010.5  0.1  718  280  +6.7        сухая 
06 05.04.13 120 (ЮВ) >10 км    5/0 верхняя 
[Ci fib]
+14.5 +8.3 66 +14  1010.2  718  273           
09 05.04.13 110 (В) >10 км    6/0 верхняя 
[Ci fib]
+20.4 +4.5 35 +20  1008.8  -0.3  718  269           
12 05.04.13 030 (СВ) >10 км    8/0 верхняя 
[Ci fib]
+22.9 +6.9 36 +23  1008.6  0.2  718  266           
15 05.04.13 270 (З) 8-11{11}  >10 км    9/0 верхняя 
[Ci fib]
+18.7 +10 57 +21  1011.6  2.2  720  270    +23.4       
18 05.04.13 270 (З) 5{11}  >10 км    6/0 верхняя 
[Ci fib]
+13.1 +9.4 78 +13  1014  1.2  721  275           
21 05.04.13 290 (З) 7-10{12}  >10 км    6/0 верхняя 
[Ci fib]
+10.6 +8.5 87 +9  1014.5  0.1  721  278           
00 06.04.13 290 (З) 4{10}  10 км    10/10 120 м 
[St]
+9.3 +8.4 94 +8  1015.3  0.6  721  280           
03 06.04.13 170 (Ю) 2000 м  дымка  10/0 средняя, верхняя 
[Ac trans|Ci fib]
+7.7 +7.1 96 +7  1015.1  -0.5  721  281  +7.6         
06 06.04.13 090 (В) >10 км    4/0 средняя 
[Ac trans]
+13.4 +8.6 73 +14  1013.7  -0.3  721  275           
09 06.04.13 060 (СВ) >10 км    10/1 600 м средняя, верхняя 
[Sc|Ac As|Cs]
+16 +9 63 +17  1011.4  -1.7  719  272           
12 06.04.13 100 (В) >10 км    10/0 средняя, верхняя 
[Ac trans|Cs]
+18.2 +9.4 56 +21  1010  -0.9  719  270           
15 06.04.13 100 (В) >10 км    10/0 средняя, верхняя 
[Ac As|Ci sp]
+16.4 +10.6 69 +20  1009.7  -0.6  718  271    +18.7       
18 06.04.13 160 (Ю) >10 км    6/0 средняя 
[Ac trans]
+13.1 +9.5 79 +15  1011  0.6  719  275           
21 06.04.13 220 (ЮЗ) >10 км    3/0 средняя 
[Ac trans]
+12.7 +9.4 80 +14  1011  -0.1  719  275           
00 07.04.13 190 (Ю) >10 км    1/0 средняя 
[Ac trans]
+12.7 +9.4 80 +14  1011  -0.1  719  275           
03 07.04.13 280 (З) >10 км    10/0 средняя, верхняя 
[Ac As|Ci]
+11.1 +5.2 67 +12  1012.4  719  278  +11.1        сухая 
06 07.04.13 280 (З) >10 км    8/0 верхняя 
[Ci]
+14.7 +5.2 53 +15  1012.3  0.6  720  274  +11         
09 07.04.13 280 (З) >10 км    10/0 средняя, верхняя 
[Ac trans|Ci]
+17.7 +4.2 41 +18  1011.3  -0.4  720  272           
12 07.04.13 280 (З) >10 км    10/0 средняя, верхняя 
[Ac trans|Ci fib]
+18.2 +4.3 40 +19  1010.8  -0.5  719  271           
15 07.04.13 340 (С) >10 км    10/0 средняя 
[Ac und]
+16.7 +4.4 44 +18  1010.4  -0.5  719  272    +18.5       
18 07.04.13 080 (В) >10 км    6/0 средняя 
[Ac trans]
+11.8 +5 63 +11  1010.4  -0.9  718  277           
21 07.04.13 060 (СВ) >10 км    8/0 средняя 
[Ac trans]
+11.7 +6.2 69 +11  1007.5  -2.7  716  276           
00 08.04.13 140 (ЮВ) >10 км    10/0 средняя 
[Ac und]
+11.4 +6.4 71 +11  1006.3  -1.3  715  275           
03 08.04.13 100 (В) >10 км    8/0 средняя, верхняя 
[Ac trans|Ci fib]
+12.8 +7.1 68 +12  1002.1  -3.7  712  273  +10.9        сухая 
06 08.04.13 120 (ЮВ) 9-12{14}  >10 км    8/0 средняя 
[Ac trans]
+17.9 +3.5 38 +17  999.4  -3.7  711  268           
09 08.04.13 150 (ЮВ) 1{13}  >10 км    8/0 средняя, верхняя 
[Ac trans|Ci fib]
+22.1 +6.5 36 +22  997.9  -0.7  711  264           
12 08.04.13 290 (З) 4-10{10}  >10 км    8/0 средняя, верхняя 
[Ac trans|Ci fib]
+23.6 +2.8 26 +24  997.8  -0.1  711  263           
15 08.04.13 320 (СЗ) >10 км    8/0 средняя, верхняя 
[Ac trans|Ci fib]
+20.4 +2.7 31 +20  999  0.6  711  266    +25.2       
18 08.04.13 340 (С) >10 км    10/0 средняя 
[Ac und]
+16.4 +5.3 48 +17  1000.5  0.7  712  270           
21 08.04.13 260 (З) >10 км  слаб. ливневой дождь  10/5 1000 м кучево-дожд., средняя 
[Cb cap|Ac und]
+13.3 +9.4 77 +14  1003.5  2.4  713  272           
00 09.04.13 270 (З) >10 км  слаб. ливневой дождь  10/5 1000 м кучево-дожд., средняя 
[Cb cap|Ac und]
+11.4 +9.4 87 +12  1003.5  -0.3  713  274           
03 09.04.13 290 (З) >10 км  {ливн. осадки}  10/5 1000 м кучево-дожд., средняя 
[Cb calv|Ac und]
+12.9 +7.5 70 +13  1004.1  -0.3  714  273  +10.6    0.3     
06 09.04.13 290 (З) 0050 м  дымка{ливн. осадки}  10/8 180 м кучево-дожд., средняя 
[Cb calv|Ac und]
+10.5 +9.1 91 +11  1006.7  2.1  715  276  +9.5         
09 09.04.13 300 (СЗ) 4000 м  дымка  10/8 210 м кучево-дожд., средняя 
[Cb calv|Ac und]
+9.1 +9.1 100 +10  1009.4  2.3  717  278           
12 09.04.13 190 (Ю) 4000 м  дымка{ливн. осадки}  10/8 330 м кучево-дожд., средняя 
[Cb calv|Ac und]
+10.5 +7.9 84 +11  1010.4  1.1  718  277           
15 09.04.13 300 (СЗ) 4000 м  дымка  10/8 600 м кучево-дожд., средняя 
[Cb calv|Ac und]
+9.4 +7.6 89 +9  1011  0.5  718  278    +12.9       
18 09.04.13 290 (З) 10 км  {ливн. осадки}  10/8 300 м кучево-дожд., средняя 
[Cb cap|Ac und]
+7.8 +6.4 91 +6  1013.3  1.8  720  281           
21 09.04.13 280 (З) >10 км  слаб. ливневой дождь  10/8 240 м кучево-дожд., средняя 
[Cb cap|Ac und]
+6.9 +6 94 +7  1013.8  0.3  720  282           
00 10.04.13 290 (З) 10 км  {ливн. осадки}  10/8 210 м кучево-дожд., средняя 
[Cb cap|Ac und]
+6.1 +5.2 94 +5  1014.2  0.2  720  283           
03 10.04.13 270 (З) 10 км    10/8 200 м кучево-дожд., средняя 
[Cb calv|Ac und]
+5.8 +4.9 94 +5  1014.8  0.5  720  283  +5.8      влажная 
06 10.04.13 280 (З) >10 км    10/8 300 м кучево-дожд., средняя 
[Cb calv|Ac und]
+7.2 +4.8 85 +6  1015.4  0.8  721  282  +5.8         
09 10.04.13 280 (З) >10 км    10/8 600 м кучево-дожд., средняя 
[Cb calv|Ac und]
+8 +4.5 79 +6  1015.5  0.2  721  282           
12 10.04.13 310 (СЗ) >10 км    10/8 800 м средняя 
[Sc|Ac und]
+9.6 +4.7 72 +9  1014.6  -0.6  721  280           
15 10.04.13 320 (СЗ) >10 км    10/6 1000 м средняя 
[Sc|Ac und]
+8.9 +4.7 75 +10  1014.9  0.2  721  281    +9.9       
18 10.04.13 140 (ЮВ) >10 км    10/8 1200 м средняя 
[Sc|Ac und]
+8 +6 87 +9  1016.1  722  281           
21 10.04.13 330 (СЗ) >10 км    10/6 1000 м средняя 
[Sc|Ac und]
+7.7 +6 89 +9  1015.8  721  282           
00 11.04.13 060 (СВ) >10 км    10/5 480 м средняя 
[Sc|Ac und]
+7.3 +6 91 +8  1015.6  -0.2  721  282           
03 11.04.13 100 (В) 10 км    10/6 1000 м средняя 
[Sc|Ac und]
+7 +5.7 91 +8  1015.5  0.1  721  282  +6.7        полностью
покрыта
пылью 
06 11.04.13 100 (В) 4000 м  дождь  10/10 120 м 
[Frnb|Ns]
+7.6 +6.7 94 +7  1015.8  0.4  721  282  +6.7         
09 11.04.13 140 (ЮВ) 10 км  слаб. дождь  10/10 150 м 
[Frnb|Ns]
+8.6 +7.7 94 +7  1016  0.4  722  281           
12 11.04.13 130 (ЮВ) >10 км  слаб. дождь  10/10 180 м 
[Frnb|Ns]
+7.5 +6.4 93 +6  1017  0.7  722  282           
15 11.04.13 120 (ЮВ) >10 км  в посл. час дождь  10/10 270 м 
[Frnb|Ns]
+7.9 +7.1 95 +7  1017.4  0.7  723  282    +8.6  10     
18 11.04.13 010 (С) 10 км  слаб. дождь  10/10 150 м 
[Frnb|Ns]
+7.2 +6.6 96 +8  1018.6  723  283           
21 11.04.13 240 (ЮЗ) >10 км  {дождь}  6/0 средняя 
[Ac trans]
+5 +4.3 95 +6  1019.6  0.5  724  286           
00 12.04.13 310 (СЗ) >10 км  {дождь}  8/0 средняя 
[Ac trans]
+6.1 +5 93 +6  1019  -0.4  723  284           
03 12.04.13 240 (ЮЗ) >10 км    8/4 1000 м средняя 
[Sc|Ac trans]
+5.7 +5 95 +7  1019.2  0.2  724  285  +4.2      влажная 
06 12.04.13 150 (ЮВ) >10 км    8/4 300 м средняя 
[St|Ac trans]
+8.9 +5.7 80 +10  1019.5  0.2  724  282           
09 12.04.13 060 (СВ) >10 км    9/5 600 м средняя 
[Sc|Ac trans]
+11.9 +5.2 64 +12  1019.1  0.2  724  279           
12 12.04.13 360 (С) >10 км    8/4 1000 м кучево-дожд., средняя 
[Cb calv|Ac trans]
+12.5 +3.9 56 +13  1018.8  0.2  724  278           
15 12.04.13 070 (В) >10 км    9/4 1000 м кучево-дожд., средняя 
[Cb calv|Ac trans]
+11.6 +5.3 65 +11  1019.5  0.5  725  279    +13.6       
18 12.04.13 020 (С) >10 км    9/5 600 м средняя 
[Sc diur, vesp|Ac trans]
+9.5 +5.9 78 +10  1020.9  0.9  725  281           
21 12.04.13 тихо ()   >10 км    5/0 средняя 
[Ac trans]
+7.4 +5.9 90 +7  1021.3  725  284           
00 13.04.13 250 (З) >10 км    8/5 1000 м средняя 
[Sc|Ac trans]
+8.5 +6.1 85 +10  1021.4  0.3  726  282           
03 13.04.13 300 (СЗ) >10 км  слаб. ливневой дождь  10/5 1000 м кучево-дожд., средняя 
[Cb cap|Ac und]
+7.7 +6.3 91 +9  1022.4  0.8  726  283  +6.4    0.8     
06 13.04.13 310 (СЗ) >10 км  {ливн. осадки}  8/3 600 м верхняя 
[Cu hum|Ci fib]
+12 +5.4 64 +12  1022.2  0.6  727  280           
09 13.04.13 280 (З) >10 км    8/4 600 м кучево-дожд., средняя 
[Cb calv|Ac trans]
+12.4 +5.4 62 +12  1022.1  727  279           
12 13.04.13 400 () 44  >10 км    4/4 1000 м кучево-дожд., средняя 
[Cb calv|Ac trans]
+13 +5.6 61 +9  1021.7  -0.3  726  278           
15 13.04.13 340 (С) >10 км    4/3 1000 м кучево-дожд., верхняя 
[Cb calv|Ci fib]
+11.9 +4.1 59 +12  1022.2  -0.2  727  280    +14.1       
18 13.04.13 350 (С) >10 км    8/0 средняя 
[Ac trans]
+9.5 +2.8 63 +10  1023.5  0.8  727  283           
21 13.04.13 080 (В) >10 км    8/0 средняя 
[Ac trans]
+7.3 +2.4 71 +7  1023.5  -0.4  727  285           
00 14.04.13 050 (СВ) >10 км    8/0 средняя 
[Ac trans]
+6.1 +2.3 77 +7  1023.5  -0.2  727  286           
03 14.04.13 100 (В) >10 км    1/0 средняя 
[Ac trans]
+6 +3.7 85 +6  1023.5  727  286  +4.9        влажная 
06 14.04.13 070 (В) >10 км    4/1 600 м верхняя 
[Cu hum|Ci sp]
+11.1 +4.1 62 +10  1022.6  0.1  727  281           
09 14.04.13 060 (СВ) >10 км    6/4 600 м верхняя 
[Cu hum|Ci sp]
+13.5 +3.4 50 +13  1021.5  -0.6  726  278           
12 14.04.13 090 (В) >10 км    8/8 600 м 
[Cu hum]
+15.4 +4.2 47 +15  1020  -1.1  725  276           
15 14.04.13 080 (В) >10 км    3/0 средняя 
[Ac cuf]
+13.4 +4.1 53 +13  1020  -0.3  725  278    +15.6       
18 14.04.13 060 (СВ) >10 км    1/0 средняя 
[Ac trans]
+8.3 +3.8 73 +7  1021.9  0.9  726  283           
21 14.04.13 060 (СВ) >10 км    3/0 средняя 
[Ac trans]
+6.1 +3.7 85 +5  1022.3  726  285           
00 15.04.13 080 (В) >10 км    3/0 средняя 
[Ac trans]
+5.7 +3 83 +4  1022.6  0.1  726  286           
03 15.04.13 070 (В) >10 км    6/0 средняя 
[Ac trans]
+6 +2.1 76 +4  1023  0.4  726  286  +4.2        сухая 
06 15.04.13 080 (В) 10-13{13}  >10 км    5/0 верхняя 
[Ci fib]
+10.8 +1.9 54 +9  1023.1  727  281           
09 15.04.13 080 (В) 11-14{15}  >10 км    8/3 600 м верхняя 
[Cu hum|Ci fib]
+14 +2.9 47 +12  1022.8  727  278           
12 15.04.13 080 (В) 11-15{15}  >10 км    8/4 600 м верхняя 
[Cu hum|Ci fib]
+13.7 +2.1 45 +12  1022.5  -0.4  727  279           
15 15.04.13 080 (В) 10-14  >10 км    8/0 верхняя 
[Ci fib]
+10.4 -0.9 45 +8  1023.3  0.2  727  282    +14.6       
18 15.04.13 080 (В) 11-14{16}  >10 км    3/0 верхняя 
[Ci fib]
+5.8 -0.6 64 +2  1024.7  0.5  727  287           
21 15.04.13 090 (В) 9-13{14}  >10 км    3/0 верхняя 
[Ci fib]
+3.9 -1 70 1024.7  -0.4  727  289           
00 16.04.13 090 (В) 9-12{15}  >10 км    ясно 
+2.5 +0.3 85 -1  1023.8  -1.1  726  290           
03 16.04.13 090 (В) 10-15{15}  >10 км    3/0 верхняя 
[Ci fib]
+1.9 +0.2 89 -3  1023.3  -0.6  726  290  +1.6        сухая 
06 16.04.13 100 (В) 15-22{22}  >10 км    8/8 720 м 
[Sc]
+5.8 -0.1 66 +1  1022.7  0.1  726  286           
09 16.04.13 090 (В) 14-19{22}  >10 км    8/6 800 м верхняя 
[Sc|Ci fib]
+8.9 +0.1 54 +5  1021.7  -0.3  726  283           
12 16.04.13 090 (В) 14-20{22}  >10 км    8/5 1000 м верхняя 
[Sc|Ci fib]
+10.9 -0.1 47 +8  1020.2  -1  725  281           
15 16.04.13 100 (В) 14  >10 км    8/6 1050 м верхняя 
[Sc|Ci fib]
+8 +0.2 58 +4  1020  -0.7  724  283    +11.4       
18 16.04.13 080 (В) 13-17{19}  >10 км    10/6 1000 м средняя 
[Sc|Ac und]
+5.4 +0.2 69 +1  1019.9  -0.6  724  286           
21 16.04.13 080 (В) 11-14{17}  >10 км    5/3 1000 м средняя 
[Sc|Ac trans]
+3 -0.7 77 -1  1020  -0.4  724  288           
00 17.04.13 080 (В) 10-13{17}  >10 км    6/3 1000 м средняя 
[Sc|Ac trans]
+1.7 +0.2 90 -3  1019.1  -1  723  289           
03 17.04.13 080 (В) 10  >10 км    10/8 600 м средняя 
[Sc|Ac und]
+1.6 +0.2 91 -3  1019.1  -0.1  723  289  +0.9        сухая 
06 17.04.13 080 (В) 12-16{16}  >10 км    10/8 500 м средняя 
[Sc|Ac und]
+4 +0.6 78 1019.2  0.6  723  287           
09 17.04.13 080 (В) 13-17{17}  >10 км    10/8 540 м средняя 
[Sc|Ac und]
+5.9 +1.9 75 +2  1018.6  -0.2  723  285           
12 17.04.13 070 (В) 10-15  >10 км  в посл. час ливневой дождь  10/8 630 м кучево-дожд., средняя 
[Cb calv|Ac und]
+6.3 +2.3 76 +3  1018.7  0.2  723  284           
15 17.04.13 090 (В) >10 км  {ливн. осадки}  10/5 600 м кучево-дожд., средняя 
[Cb calv|Ac und]
+6.3 +1.2 70 +3  1019.1  0.3  724  285    +6.9       
18 17.04.13 080 (В) 8-11  >10 км  {ливн. осадки}  10/6 750 м кучево-дожд., средняя 
[Cb calv|Ac und]
+3.8 -0.1 76 1020.5  0.8  724  288           
21 17.04.13 080 (В) 9-12{14}  >10 км  слаб. ливневой дождь  10/8 600 м кучево-дожд., средняя 
[Cb cap|Ac und]
+3.3 +1.7 89 -1  1019.8  -0.7  724  288           
00 18.04.13 080 (В) 7{12}  10 км  в посл. час ливневой дождь  10/8 270 м кучево-дожд., средняя 
[Cb calv|Ac und]
+3.4 +2.4 93 1019.4  -0.3  723  287           
03 18.04.13 090 (В) 10 км    10/8 200 м кучево-дожд., средняя 
[Cb calv|Ac und]
+3.8 +2.6 92 1019.7  0.4  724  287  +3.3    0.3    влажная 
06 18.04.13 090 (В) 9-13{14}  >10 км    10/8 570 м кучево-дожд., средняя 
[Cb calv|Ac und]
+6.5 +3.1 79 +3  1020  0.8  724  284           
09 18.04.13 080 (В) 10-12{15}  >10 км    10/8 700 м кучево-дожд., средняя 
[Cb calv|Ac und]
+7.6 +2.1 68 +5  1020.6  0.8  725  284           
12 18.04.13 100 (В) 8-12{14}  >10 км    10/8 840 м средняя 
[Sc diur, vesp|Ac und]
+9.4 +2.4 62 +7  1020.2  725  282           
15 18.04.13 100 (В) 7{13}  >10 км    10/8 1000 м средняя 
[Sc diur, vesp|Ac und]
+9.1 +1.5 59 +7    0.5  725  282    +9.9       
18 18.04.13 070 (В) >10 км    8/4 1000 м средняя 
[Sc|Ac trans]
+6.7 +1.7 70 +5  1021.6  0.3  725  285           
21 18.04.13 080 (В) >10 км    6/0 средняя 
[Ac trans]
+5.8 +1.7 75 +4  1021.2  -0.5  725  286           
00 19.04.13 080 (В) >10 км    6/0 средняя 
[Ac trans]
+2.6 +0.5 86 +1  1021.2  -0.4  725  289           
03 19.04.13 100 (В) >10 км    4/0 средняя 
[Ac trans]
+1.9 +0.5 90 -1  1021.9  0.4  725  290  +0.7        сухая 
06 19.04.13 100 (В) 9-11{13}  >10 км    6/3 600 м средняя 
[Sc|Ac trans]
+8.4 +2.2 65 +6  1021  0.3  725  283           
09 19.04.13 100 (В) 9-13{15}  >10 км    8/3 600 м средняя, верхняя 
[Sc|Ac trans|Ci fib]
+12.3 +1 46 +11  1019.6  -0.6  725  279           
12 19.04.13 100 (В) 9-11{14}  >10 км    8/8 1000 м 
[Cu hum]
+12.3 +1 46 +11  1019.6  -1.1  724  279           
15 19.04.13 100 (В) 7-10  >10 км    8/5 1000 м верхняя 
[Sc diur, vesp|Ci fib]
+9.9 +2.5 60 +8  1018.3  -0.5  723  281    +13.6       
18 19.04.13 090 (В) 7-10{10}  >10 км    10/8 900 м средняя 
[Sc|Ac und]
+7.4 +4.1 79 +5  1018.6  0.1  723  283           
21 19.04.13 100 (В) 7-10{10}  >10 км    10/10 240 м 
[St]
+6.5 +5.1 91 +4  1016.9  -1.8  722  283           
00 20.04.13 100 (В) 7-10{12}  >10 км    10/10 240 м 
[St]
+6.5 +5 90 +4  1015.8  -1  721  283           
03 20.04.13 100 (В) 7{11}  >10 км    10/10 240 м 
[St]
+6.2 +4.8 91 +4  1015.9  721  283  +6.1        сухая 
06 20.04.13 100 (В) 10-14  >10 км    10/8 360 м средняя 
[St|Ac und]
+7.1 +3.8 79 +4  1016.2  0.5  722  283  +6.1         
09 20.04.13 100 (В) 11-15{15}  >10 км    10/8 600 м средняя 
[Sc|Ac und]
+10.3 +4.3 66 +8  1014.6  -1  721  279           
12 20.04.13 090 (В) 9-12{15}  >10 км    10/8 660 м средняя 
[Sc|Ac und]
+10.3 +4.9 69 +8  1013.5  -1  720  279           
15 20.04.13 110 (В) >10 км    10/8 630 м средняя 
[Sc|Ac und]
+9.7 +5.4 75 +8  1013.4  -0.3  720  279    +12       
18 20.04.13 050 (СВ) >10 км    10/5 900 м кучево-дожд., средняя 
[Cb calv|Ac und]
+9.2 +5.5 78 +9  1013  -0.4  720  280           
21 20.04.13 060 (СВ) >10 км    10/5 1000 м кучево-дожд., средняя 
[Cb calv|Ac und]
+8.2 +5.4 83 +8  1011.9  -1.3  719  280           
00 21.04.13 050 (СВ) >10 км    10/8 700 м кучево-дожд., средняя 
[Cb calv|Ac und]
+7.4 +5.7 89 +7  1011.3  -0.8  718  281           
03 21.04.13 050 (СВ) >10 км  слаб. дождь  10/5 600 м средняя 
[Sc diur, vesp|Ac und]
+7 +5.9 93 +8  1011.1  -0.2  718  281  +6.9    0.0     
06 21.04.13 020 (С) 3000 м  слаб. дождь  10/8 180 м средняя 
[St|Ac und]
+7.6 +6.8 95 +8  1010.9  -0.1  718  280           
09 21.04.13 тихо ()   10 км  {дождь}  10/8 480 м средняя 
[Sc|Ac und]
+9.3 +7.5 89 +9  1010.1  -0.5  718  278           
12 21.04.13 350 (С) >10 км  {дождь}  10/5 1000 м средняя 
[Sc|Ac und]
+10.8 +6.6 75 +10  1009.2  -0.6  717  277           
15 21.04.13 280 (З) >10 км    10/6 1000 м средняя 
[Sc|Ac und]
+10.3 +6.6 78 +9  1009.1  -0.2  717  277    +11.5  0.3     
18 21.04.13 330 (СЗ) >10 км    10/4 1000 м средняя 
[Sc|Ac und]
+8.3 +7.1 92 +8  1010.1  0.7  718  279           
21 21.04.13 270 (З) >10 км    10/4 1000 м средняя 
[Sc|Ac und]
+8.6 +7.1 90 +9  1009.3  -0.7  717  279           
00 22.04.13 280 (З) 4000 м  дымка  10/10 150 м 
[St]
+8.3 +7.6 95 +8  1008.7  -0.6  716  279           
03 22.04.13 290 (З) 2000 м  слаб. морось  10/10 100 м 
[St]
+8 +7.6 97 +7  1009  0.3  717  279  +8        влажная 
06 22.04.13 280 (З) 10 км  слаб. дождь{морось}  10/10 180 м 
[Frnb|Ns]
+8.2 +7 92 +6  1009.9  0.8  717  279  +7.9         
09 22.04.13 260 (З) 9-12  10 км  слаб. дождь  10/8 400 м средняя 
[Frnb|Ac und]
+10 +7.3 83 +8  1009.9  0.4  718  278           
12 22.04.13 260 (З) 7-10  10 км  {ливн. осадки, дождь}  10/8 420 м кучево-дожд., средняя 
[Cb calv|Ac und]
+9.6 +7.4 86 +8  1009.9  0.1  718  278           
15 22.04.13 270 (З) 6{11}  10 км    8/5 300 м кучево-дожд., средняя 
[Cb calv|Ac trans]
+10.5 +7.8 83 +9  1010  0.3  718  277    +11.5     
18 22.04.13 280 (З) 5{10}  >10 км    10/6 600 м кучево-дожд., средняя 
[Cb calv|Ac und]
+7.9 +7 94 +6  1011.8  1.2  719  280           
21 22.04.13 250 (З) 7-11{11}  >10 км  слаб. ливневой дождь  10/6 300 м кучево-дожд., средняя 
[Cb calv|Ac und]
+8.4 +7 91 +6  1011.3  -0.4  718  280           
00 23.04.13 300 (СЗ) 6{15}  1500 м  слаб. морось{туман}  10/10 100 м 
[St]
+6.1 +5.6 97 +4  1012.5  0.7  719  282           
03 23.04.13 290 (З) 0500 м  туман{морось}  ?/?  
+4 +3.6 97 +1  1014.8  1.8  720  285  +4      влажная 
06 23.04.13 270 (З) >10 км  {морось, туман}  8/6 300 м кучево-дожд., средняя 
[Cb cap|Ac trans]
+6.7 +3.3 79 +4  1016.3  1.8  722  283  +3.8         
09 23.04.13 280 (З) 9-13{14}  >10 км    8/6 1000 м кучево-дожд., средняя 
[Cb cap|Ac trans]
+8 -1.6 51 +5  1016.9  0.8  722  283           
12 23.04.13 290 (З) 8-13{16}  >10 км  {ливн. осадки}  8/4 1000 м кучево-дожд., верхняя 
[Cb cap|Ci fib]
+8.1 -0.9 53 +6  1017.6  0.7  723  283           
15 23.04.13 280 (З) >10 км  в посл. час ливневой дождь  8/6 600 м кучево-дожд., средняя 
[Cb cap|Ac As]
+4.4 +0.4 75 +1  1019.5  1.1  724  287    +9  0.3     
18 23.04.13 280 (З) 7-10  >10 км  {ливн. осадки}  9/5 240 м средняя 
[St|Ac trans]
+3.5 +2.2 91 1021.5  1.7  725  288           
21 23.04.13 260 (З) 6{11}  >10 км    8/3 600 м средняя, верхняя 
[Sc|Ac trans|Ci sp]
+3.2 +0.5 82 1021.8  0.2  725  289           
00 24.04.13 260 (З) 7-10{10}  >10 км  {ливн. осадки}  9/3 1000 м верхняя 
[Sc|Ci fib]
+4.1 +0.1 75 +1  1021.1  -0.4  725  288           
03 24.04.13 260 (З) >10 км  в посл. час ливневой дождь  9/4 1000 м кучево-дожд., средняя 
[Cb calv|Ac trans]
+3.8 +1.2 83 1021.6  0.4  725  288  +1.7    0.8     
06 24.04.13 270 (З) 9-12{12}  >10 км  {ливн. осадки}  10/1 1000 м средняя 
[Sc diur, vesp|Ac und]
+6.5 +1.8 72 +3  1021.6  0.5  725  285           
09 24.04.13 270 (З) 9-13{15}  >10 км    10/4 1000 м средняя 
[Sc|Ac und]
+8.9 +0.6 56 +6  1021.1  0.5  725  283           
12 24.04.13 290 (З) 10-16{17}  >10 км    10/3 1000 м средняя 
[Sc|Ac und]
+12.7 -0.3 41 +11  1018.9  -1.3  724  279           
15 24.04.13 280 (З) 11-16  >10 км    8/4 1000 м средняя 
[Sc|Ac trans]
+13 +0.8 43 +11  1018.4  -0.4  724  278    +14.2       
18 24.04.13 260 (З) 12-17{17}  >10 км    8/3 1000 м средняя 
[Sc|Ac trans]
+10.6 +0.8 51 +8  1019.5  0.6  724  281           
21 24.04.13 250 (З) 12-18{19}  >10 км  {ливн. осадки}  10/3 1000 м средняя 
[Sc|Ac und]
+8.9 -1.1 50 +6  1019.1  -0.8  724  283           
00 25.04.13 260 (З) 13-21{21}  >10 км  {дождь}  8/3 1000 м средняя 
[Sc|Ac trans]
+8.3 -0.8 53 +5  1017.7  -1.4  723  283           
03 25.04.13 270 (З) 12  >10 км    10/4 1000 м средняя 
[Sc|Ac und]
+7.9 +1 62 +5  1018.1  0.3  723  283  +7.9        сухая 
06 25.04.13 270 (З) 11-17{19}  >10 км    9/3 1000 м средняя, верхняя 
[Sc|Ac trans|Ci fib]
+10.7 +4.3 65 +8  1019.3  1.7  724  280           
09 25.04.13 090 (В) 9-14{18}  >10 км    8/6 840 м верхняя 
[Cu med, cong|Ci fib]
+13.4 +5.3 58 +12  1018.5  -0.2  724  277           
12 25.04.13 280 (З) 11-16{18}  >10 км    10/6 1000 м кучево-дожд., верхняя 
[Cb calv|Ci fib]
+14.8 +4.4 50 +13  1017.5  -0.7  724  276           
15 25.04.13 270 (З) 8-11  >10 км    10/4 1000 м средняя, верхняя 
[Sc diur, vesp|Ac trans|Ci fib]
+14.6 +5 53 +14  1016.6  -1  723  276    +15.3       
18 25.04.13 270 (З) 9-13{15}  >10 км    10/0 средняя 
[Ac und]
+12.3 +1.2 47 +11  1017.2  0.1  723  279           
21 25.04.13 260 (З) 10-14{14}  >10 км    6/0 средняя 
[Ac trans]
+11.3 +1 49 +9  1016.5  -0.9  722  279           
00 26.04.13 260 (З) 9-12{14}  >10 км    8/0 средняя, верхняя 
[Ac trans|Ci fib]
+11.3 +2.3 54 +9  1014.9  -0.9  721  279           
03 26.04.13 270 (З) 11  >10 км    10/4 1000 м средняя 
[Sc|Ac und]
+11.9 +3.5 56 +10  1013.9  -0.8  721  278  +10.8        сухая 
06 26.04.13 280 (З) 9-14{19}  >10 км  в посл. час дождь  10/4 1000 м средняя 
[Sc|Ac und]
+11 +4.7 65 +9  1014.7  0.6  721  279           
09 26.04.13 290 (З) 10-16{17}  >10 км    10/4 600 м средняя, верхняя 
[Sc|Ac trans|Ci fib]
+14.4 +5.5 55 +13  1015.2  1.1  722  275           
12 26.04.13 290 (З) 10-15{21}  >10 км    9/3 1000 м кучево-дожд., верхняя 
[Cb calv|Ci fib]
+16.3 +2.6 40 +15  1015.4  0.4  722  274           
15 26.04.13 310 (СЗ) 6{16}  >10 км    8/0 верхняя 
[Ci fib]
+13.6 -5 27 +13  1017.2  1.2  723  278    +16.3       
18 26.04.13 300 (СЗ) 3{10}  >10 км    3/0 средняя 
[Ac lent]
+8.5 -4.6 39 +8  1020.2  1.9  725  284           
21 26.04.13 310 (СЗ) >10 км    3/0 средняя 
[Ac trans]
+8.9 -6.6 33 +8  1021.2  725  284           
00 27.04.13 280 (З) >10 км    3/0 средняя 
[Ac trans]
+7.6 -6.1 37 +8  1021.8  0.4  726  285           
03 27.04.13 230 (ЮЗ) >10 км    6/0 верхняя 
[Ci fib]
+5.8 -4 49 +6  1022.4  0.3  726  287  +4.7        сухая 
06 27.04.13 190 (Ю) >10 км    3/0 верхняя 
[Ci fib]
+14.5 -4.2 27 +15  1021.1  0.3  726  278           
09 27.04.13 010 (С) >10 км    6/0 верхняя 
[Ci]
+18.1 -4.8 21 +19  1020.5  726  275           
12 27.04.13 030 (СВ) >10 км    4/0 верхняя 
[Ci fib]
+20.2 -2.4 22 +20  1019.1  -0.9  725  272           
15 27.04.13 080 (В) >10 км    3/0 верхняя 
[Ci fib]
+19.4 -0.3 27 +20  1018.7  -0.5  725  273    +20.5       
18 27.04.13 110 (В) >10 км    ясно 
+12.6 -0.7 40 +14  1020.5  0.5  725  279           
21 27.04.13 200 (Ю) >10 км    ясно 
+14.9 -2.1 31 +16  1019.8  -0.3  725  277           
00 28.04.13 220 (ЮЗ) >10 км    ясно 
+11.7 -1.4 40 +12  1019.9  -0.4  725  280           
03 28.04.13 тихо ()   >10 км    ясно 
+14.1 -0.2 37 +14  1019.7  0.2  725  278  +10.4        сухая 
06 28.04.13 140 (ЮВ) >10 км    ясно 
+21.3 +2.8 30 +21  1018.2  0.1  725  270           
09 28.04.13 230 (ЮЗ) >10 км    ясно 
+24.5 +2.6 24 +25  1017.2  -0.4  725  268           
12 28.04.13 060 (СВ) >10 км    ясно 
+25.9 +4.7 26 +26  1015.9  -1  724  266           
15 28.04.13 070 (В) >10 км    ясно 
+23.7 +6.7 33 +24  1016  -0.3  724  267    +25.9       
18 28.04.13 тихо ()   >10 км    ясно 
+17.4 +6.4 48 +17  1017.8  0.7  724  273           
21 28.04.13 210 (ЮЗ) >10 км    ясно 
+15.5 +5.8 52 +16  1017.4  -0.7  724  275           
00 29.04.13 230 (ЮЗ) >10 км    ясно 
+14.3 +5.6 56 +14  1017.7  724  276           
03 29.04.13 270 (З) >10 км    ясно 
+17.3 +6.6 49 +18  1017.7  0.6  724  273  +12.9        сухая 
06 29.04.13 220 (ЮЗ) >10 км    ясно 
+23.4 +6.4 33 +23  1016.8  0.1  724  268           
09 29.04.13 260 (З) 7-10{11}  >10 км    1/0 верхняя 
[Ci fib]
+26 +2.3 21 +26  1016.5  0.1  724  266           
12 29.04.13 280 (З) 6-11{12}  >10 км    3/0 верхняя 
[Ci fib]
+26.8 +2.5 21 +27  1016.1  -0.3  724  265           
15 29.04.13 300 (СЗ) 4{12}  >10 км    3/0 средняя 
[Ac trans]
+23 +5.7 33 +23  1017.6  0.9  725  268    +27.4       
18 29.04.13 290 (З) >10 км    6/0 средняя 
[Ac trans]
+19.2 +8.1 49 +20  1019.7  1.4  726  272           
21 29.04.13 270 (З) >10 км    3/0 средняя 
[Ac trans]
+15.4 +8.8 65 +16  1021.2  0.8  726  275           
00 30.04.13 280 (З) >10 км    3/0 средняя 
[Ac trans]
+15.7 +9 64 +16  1021.8  0.6  727  275           
03 30.04.13 280 (З) >10 км    ясно 
+16.4 +10 66 +19  1022.6  0.9  728  275  +12.4        сухая 
06 30.04.13 360 (С) >10 км    ясно 
+22.2 +10.9 49 +25  1022.4  0.8  728  269           
09 30.04.13 010 (С) >10 км    4/4 600 м 
[Cu med, cong]
+23.8 +12.2 48 +29  1022.4  0.3  728  268           
12 30.04.13 020 (С) >10 км    4/4 600 м 
[Cu hum]
+24.8 +11.3 43 +28  1022.1  0.1  728  267           
15 30.04.13 050 (СВ) >10 км    6/0 средняя, верхняя 
[Ac trans|Ci]
+21.7 +11.9 54 +26  1022.7  728  270    +24.8       
18 30.04.13 090 (В) >10 км    9/0 средняя 
[Ac trans]
+16.5 +12.2 76 +22  1024.4  0.8  729  275           
21 30.04.13 100 (В) >10 км    3/0 средняя 
[Ac trans]
+14.6 +11.8 83 +19  1024.6  -0.2  729  276           
00 01.05.13 100 (В) >10 км    3/0 средняя 
[Ac trans]
+12.7 +11 89 +16  1024.6  -0.3  728  278           
03 01.05.13 110 (В) >10 км    4/0 верхняя 
[Ci fib]
+12.8 +11.6 92 +17  1025.1  0.5  729  278  +11.5        сухая 
06 01.05.13 110 (В) >10 км    3/0 верхняя 
[Ci fib]
+19.1 +13 68 +25  1024.1  0.2  729  272           
09 01.05.13 130 (ЮВ) 6{11}  >10 км    3/0 верхняя 
[Ci fib]
+23.8 +11.3 45 +27  1022  -1.3  728  268           
12 01.05.13 110 (В) 6{11}  >10 км    ясно 
+25.3 +10.9 40 +28  1019.9  -1.7  727  266           
15 01.05.13 110 (В) 6{10}  >10 км    ясно 
+23 +11 47 +26  1019  -1.2  726  268    +25.5       
18 01.05.13 110 (В) >10 км    ясно 
+15.8 +11.1 74 +19  1019.9  -0.3  726  274           
21 01.05.13 130 (ЮВ) >10 км    ясно 
+13.7 +10.3 80 +15  1019.4  -0.9  725  276           
00 02.05.13 110 (В) >10 км    ясно 
+11.8 +9.3 85 +13  1019.2  -0.5  724  278           
03 02.05.13 150 (ЮВ) >10 км    ясно 
+12.3 +9.9 85 +15  1019.2  -0.1  725  277  +10.6        сухая 
Время (UTC), дата Ветер
(°,м/с) 
Видим.   Явления Облачность Т
(°С)
Тd
(°С)
f(%) Тe
(°С)
Pmin
(гПа)
dP
(гПа)
Po
(мм)
O2
(г/м3)
Тmin Tmax R s Состояние
почвы